[[{"header":{"parameterUnit":"m.s-1","parameterCategory":1,"la1":30.2991,"la2":30.254,"lo1":-89.0895,"lo2":-89.0444,"dy":0.0017,"dx":0.0017,"nx":28,"ny":28,"refTime":"2025-01-25T09:00:00:Z","depth":0,"parameterNumber":2,"parameterNumberName":"U-component_of_WINDS"},"data":[0,0,0,0,0,0,0,0,0,0,0,0,0,0,0,0,0,0,0,0,0,0,0,0,0,0,0,0,0,0,0,0,0,0,0,0,0,0,0,0,0,0,0,0,0,0,0,0,0,0,0,0,0,0,0,0,0,0,-1.9176,-1.9176,0,-1.9179,-1.9179,-1.9179,-1.9128,-1.9126,-1.9125,-1.9124,-1.9131,-1.9133,-1.9134,0,0,0,0,0,0,0,0,0,0,0,0,0,-1.9126,-1.9127,-1.9176,-1.9176,-1.9176,-1.9179,-1.9179,-1.9179,-1.9128,-1.9126,-1.9125,-1.9123,-1.9131,-1.9132,-1.9134,0,0,0,0,0,0,0,0,0,0,0,0,0,-1.9141,-1.9128,-1.9176,-1.9151,-1.9148,-1.9179,-1.9179,-1.9179,-1.9128,-1.9126,-1.9124,-1.9122,-1.913,-1.9132,-1.9135,-1.9191,0,0,-1.9142,-1.9143,0,0,0,0,0,0,0,0,-1.914,-1.9143,-1.9154,-1.9152,-1.915,-1.9151,-1.9165,-1.9184,-1.9129,-1.9136,-1.9124,-1.9121,-1.914,-1.9141,-1.9147,-1.9191,-1.9192,-1.9142,-1.9143,-1.9144,-1.9145,0,0,0,0,0,0,0,-1.9139,-1.9142,-1.9177,-1.9154,-1.9152,-1.914,-1.9139,-1.9168,-1.915,-1.9135,-1.9132,-1.9133,-1.9138,-1.9144,-1.9146,-1.9192,-1.9142,-1.9144,-1.9145,-1.9146,-1.928,-1.9282,0,0,0,0,0,0,-1.9141,-1.9142,-1.9177,-1.9177,-1.9139,-1.9142,-1.9142,-1.9153,-1.9149,-1.9147,-1.9134,-1.913,-1.9142,-1.9144,-1.9146,-1.921,-1.9144,-1.9146,-1.9148,-1.9278,-1.9281,-1.9283,0,0,0,0,0,0,-1.914,-1.9145,-1.9177,-1.9158,-1.9162,-1.9145,-1.9158,-1.9154,-1.916,-1.9149,-1.9145,-1.9144,-1.914,-1.9143,-1.9179,-1.921,-1.9147,-1.9149,-1.9276,-1.9279,-1.9282,-1.934,0,0,0,0,0,0,-1.9139,-1.9145,-1.9166,-1.9159,-1.9163,-1.921,-1.916,-1.9156,-1.9164,-1.9158,-1.9157,-1.9155,-1.9139,-1.9176,-1.9182,-1.9212,-1.9151,-1.9273,-1.9277,-1.9281,-1.9335,-1.9344,-1.9353,0,0,0,0,0,-1.9137,-1.9183,-1.9167,-1.9172,-1.9189,-1.9212,-1.9214,-1.9193,-1.9166,-1.9187,-1.918,-1.9155,-1.9206,-1.918,-1.9186,-1.9217,-1.9271,-1.9276,-1.9281,-1.9331,-1.9343,-1.9352,0,0,0,0,0,0,-1.9196,-1.9182,-1.9164,-1.9209,-1.9212,-1.9203,-1.9229,-1.9207,-1.9218,-1.9213,-1.9188,-1.9188,-1.9228,-1.9226,-1.9199,-1.927,-1.9233,-1.924,-1.927,-1.9281,-1.929,-1.9289,-1.9153,0,0,0,0,0,-1.9214,-1.9233,-1.922,-1.9261,-1.9263,-1.9246,-1.9255,-1.9239,-1.9241,-1.9242,-1.9237,-1.9241,-1.9257,-1.9269,-1.9284,-1.9334,-1.9332,-1.9359,-1.9367,-1.9375,-1.938,-1.9404,-1.9415,-1.9299,-1.9299,-1.9299,0,0,-1.9252,-1.9246,-1.926,-1.9273,-1.9273,-1.9293,-1.9247,-1.9271,-1.9286,-1.9246,-1.9279,-1.9276,-1.9278,-1.9321,-1.934,-1.9321,-1.9412,-1.9381,-1.9387,-1.9389,-1.9411,-1.9422,-1.9431,-1.9303,-1.9302,-1.9302,0,0,-1.9331,-1.9329,-1.9361,-1.9362,-1.9361,-1.9349,-1.9357,-1.9351,-1.9346,-1.9378,-1.9348,-1.9366,-1.9396,-1.9398,-1.9403,-1.9479,-1.9456,-1.9485,-1.9531,-1.9555,-1.9564,-1.9572,-1.9597,-1.9607,-1.9491,-1.9491,-1.9491,0,-1.9378,-1.9406,-1.9382,-1.9406,-1.9412,-1.9375,-1.9408,-1.941,-1.9415,-1.942,-1.9399,-1.9433,-1.9432,-1.9474,-1.9492,-1.9498,-1.9505,-1.9485,-1.9564,-1.9572,-1.9579,-1.9603,-1.9613,-1.9494,-1.9494,-1.9494,-1.9493,0,-1.9463,-1.9483,-1.951,-1.9513,-1.9522,-1.9551,-1.9531,-1.9543,-1.9525,-1.9515,-1.9547,-1.9545,-1.9557,-1.9566,-1.9551,-1.9605,-1.9593,-1.9569,-1.9531,-1.9594,-1.9616,-1.9625,-1.9499,-1.9498,-1.9497,-1.9496,0,0,-1.9581,-1.9567,-1.9578,-1.9577,-1.9573,-1.9588,-1.9615,-1.9625,-1.9635,-1.964,-1.9661,-1.9685,-1.9662,-1.9668,-1.9652,-1.9673,-1.973,-1.9645,-1.9645,-1.966,-1.9788,-1.9805,-1.9816,-1.9715,-1.9717,-1.9718,-1.9787,0,-1.9655,-1.9699,-1.9676,-1.9722,-1.974,-1.9703,-1.9726,-1.9726,-1.9717,-1.9731,-1.9721,-1.9738,-1.9707,-1.9709,-1.9728,-1.9719,-1.9756,-1.9714,-1.9734,-1.9735,-1.9733,-1.9828,-1.9847,-1.9912,-1.9795,-1.9797,-1.9798,0,-1.9749,-1.9754,-1.9802,-1.9791,-1.9798,-1.9819,-1.9825,-1.9838,-1.9837,-1.9829,-1.9834,-1.9812,-1.9837,-1.98,-1.9833,-1.9805,-1.9812,-1.9809,-1.9811,-1.9811,-1.977,-1.9829,-1.9933,-1.9942,-1.9812,-1.9811,-1.981,0,-1.9827,-1.9847,-1.9877,-1.9878,-1.9868,-1.9883,-1.9879,-1.9876,-1.9882,-1.9888,-1.9892,-1.9901,-1.9906,-1.9914,-1.9895,-1.987,-1.993,-1.9892,-1.9924,-1.9924,-1.9938,-1.9937,-2.0042,-1.9944,-1.9944,-1.9944,-1.9944,0,-1.9913,-1.9943,-1.9911,-1.993,-1.9962,-1.9936,-1.9968,-1.9961,-1.9958,-1.9974,-1.9944,-1.996,-1.9935,-1.9948,-1.9934,-1.9962,-1.9966,-1.9959,-1.9955,-1.9961,-1.9962,-1.9964,-1.9959,-1.9947,-1.9946,-1.9946,-1.9945,0,-2.0006,-1.9986,-2.0016,-2.0002,-1.9999,-2.0023,-2.0012,-2.0028,-2.0016,-2.0037,-2.004,-2.0022,-2.0036,-2.0017,-2.0031,-2.0021,-2.0059,-2.0049,-2.0059,-2.0055,-2.0087,-2.0084,-2.0197,-2.0209,-2.0105,-2.0106,-2.0107,0,-2.0061,-2.0082,-2.007,-2.0078,-2.0075,-2.0089,-2.0094,-2.0069,-2.0077,-2.0075,-2.0091,-2.0102,-2.011,-2.0134,-2.0122,-2.0131,-2.0119,-2.0158,-2.0121,-2.0125,-2.0118,-2.0116,-2.0117,-2.0166,-2.0167,-2.0168,-2.0169,0,-2.016,-2.0148,-2.0157,-2.0162,-2.0169,-2.0172,-2.0173,-2.0181,-2.0154,-2.0164,-2.0177,-2.0182,-2.0194,-2.0205,-2.021,-2.0207,-2.0183,-2.0181,-2.0188,-2.0194,-2.0198,-2.0194,-2.0078,-2.0178,-2.0177,-2.0177,-2.0176,-2.0176,-2.0235,-2.0251,-2.0244,-2.0254,-2.0251,-2.0252,-2.0266,-2.0254,-2.0264,-2.027,-2.0255,-2.027,-2.0266,-2.0271,-2.027,-2.0282,-2.0265,-2.0276,-2.0279,-2.0282,-2.0285,-2.0197,-2.0283,-2.0283,-2.0283,-2.0282,-2.0282,0,-2.0331,-2.0324,-2.0333,-2.0333,-2.0341,-2.0316,-2.0315,-2.0323,-2.0337,-2.0335,-2.0342,-2.0355,-2.0365,-2.0352,-2.036,-2.0372,-2.0361,-2.0374,-2.0372,-2.0372,-2.0301,-2.0293,-2.0383,-2.0383,-2.0383,-2.0383,-2.0383,-2.0383,-2.0382,-2.0407,-2.0394,-2.0418,-2.0411,-2.0424,-2.0426,-2.0426,-2.0423,-2.0439,-2.0446,-2.0437,-2.043,-2.0436,-2.0444,-2.044,-2.0443,-2.046,-2.0452,-2.0387,-2.0377,-2.0368,-2.036,-2.0462,-2.0462,-2.0521,-2.0522,-2.0522]},{"header":{"parameterUnit":"m.s-1","parameterCategory":1,"la1":30.2991,"la2":30.254,"lo1":-89.0895,"lo2":-89.0444,"dy":0.0017,"dx":0.0017,"nx":28,"ny":28,"refTime":"2025-01-25T09:00:00:Z","depth":0,"parameterNumber":3,"parameterNumberName":"V-component_of_WINDS"},"data":[0,0,0,0,0,0,0,0,0,0,0,0,0,0,0,0,0,0,0,0,0,0,0,0,0,0,0,0,0,0,0,0,0,0,0,0,0,0,0,0,0,0,0,0,0,0,0,0,0,0,0,0,0,0,0,0,0,0,-0.8581,-0.8579,0,-0.8389,-0.8387,-0.8385,-0.8324,-0.8325,-0.8326,-0.8327,-0.812,-0.8114,-0.8108,0,0,0,0,0,0,0,0,0,0,0,0,0,-0.8882,-0.8877,-0.8581,-0.8579,-0.8576,-0.839,-0.8387,-0.8384,-0.8324,-0.8325,-0.8326,-0.8327,-0.8122,-0.8115,-0.8107,0,0,0,0,0,0,0,0,0,0,0,0,0,-0.8727,-0.8875,-0.8582,-0.8524,-0.8517,-0.839,-0.8387,-0.8383,-0.8324,-0.8325,-0.8326,-0.8328,-0.8125,-0.8115,-0.8106,-0.802,0,0,-0.8077,-0.8073,0,0,0,0,0,0,0,0,-0.8736,-0.8716,-0.8535,-0.8528,-0.852,-0.8382,-0.8417,-0.8261,-0.8323,-0.8397,-0.8327,-0.8328,-0.8206,-0.8189,-0.815,-0.801,-0.8001,-0.8076,-0.807,-0.8066,-0.8064,0,0,0,0,0,0,0,-0.8747,-0.8724,-0.8505,-0.8532,-0.8523,-0.8503,-0.8483,-0.8387,-0.8295,-0.839,-0.8386,-0.8364,-0.8202,-0.8159,-0.8145,-0.7998,-0.8076,-0.8068,-0.8062,-0.8058,-0.777,-0.7768,0,0,0,0,0,0,-0.8769,-0.8733,-0.8511,-0.8499,-0.8634,-0.8497,-0.8474,-0.8425,-0.8296,-0.8278,-0.8363,-0.8362,-0.8175,-0.8156,-0.8137,-0.8023,-0.8066,-0.8057,-0.8052,-0.7772,-0.777,-0.7767,0,0,0,0,0,0,-0.8776,-0.875,-0.8519,-0.8615,-0.8584,-0.849,-0.8435,-0.842,-0.8378,-0.8276,-0.8258,-0.8338,-0.8175,-0.8151,-0.8048,-0.8015,-0.8053,-0.8044,-0.7774,-0.7771,-0.7769,-0.7797,0,0,0,0,0,0,-0.8784,-0.8752,-0.8722,-0.8615,-0.8579,-0.8437,-0.8434,-0.8415,-0.8363,-0.836,-0.8247,-0.823,-0.8175,-0.8063,-0.8039,-0.8003,-0.8037,-0.7777,-0.7773,-0.7769,-0.7799,-0.7796,-0.7793,0,0,0,0,0,-0.8795,-0.8737,-0.8721,-0.8694,-0.854,-0.8436,-0.8415,-0.8355,-0.8361,-0.8327,-0.826,-0.8234,-0.8024,-0.8053,-0.8026,-0.7986,-0.7778,-0.7774,-0.777,-0.78,-0.7796,-0.7793,0,0,0,0,0,0,-0.884,-0.8722,-0.8703,-0.8609,-0.8533,-0.8426,-0.8381,-0.8354,-0.8272,-0.8272,-0.8198,-0.8173,-0.8075,-0.802,-0.8056,-0.7892,-0.7899,-0.7889,-0.7932,-0.7927,-0.7924,-0.7938,-0.8029,0,0,0,0,0,-0.884,-0.8769,-0.8668,-0.8594,-0.8557,-0.8476,-0.8429,-0.8389,-0.8306,-0.8273,-0.8199,-0.8117,-0.8031,-0.7976,-0.7893,-0.7791,-0.7762,-0.7749,-0.7747,-0.7745,-0.7736,-0.7672,-0.7663,-0.7753,-0.7753,-0.7753,0,0,-0.8837,-0.8763,-0.8723,-0.8601,-0.8538,-0.8461,-0.8449,-0.837,-0.8311,-0.826,-0.8158,-0.8101,-0.8003,-0.79,-0.785,-0.7851,-0.7705,-0.7739,-0.7739,-0.773,-0.7666,-0.7658,-0.765,-0.775,-0.7751,-0.7751,0,0,-0.8792,-0.8732,-0.8662,-0.8598,-0.8503,-0.8449,-0.8432,-0.8328,-0.8288,-0.8186,-0.8144,-0.8071,-0.7927,-0.7858,-0.7804,-0.7728,-0.7698,-0.7703,-0.7686,-0.7625,-0.7618,-0.7611,-0.7579,-0.7569,-0.7695,-0.7695,-0.7695,0,-0.8799,-0.8687,-0.8628,-0.855,-0.8495,-0.8447,-0.8372,-0.8312,-0.8193,-0.8154,-0.8158,-0.7973,-0.7904,-0.7781,-0.7762,-0.7722,-0.7695,-0.7714,-0.7624,-0.7617,-0.7609,-0.7578,-0.7567,-0.7696,-0.7695,-0.7695,-0.7695,0,-0.8698,-0.862,-0.8574,-0.8462,-0.8402,-0.8326,-0.8251,-0.8196,-0.8161,-0.8105,-0.7997,-0.7913,-0.7809,-0.7777,-0.7742,-0.7647,-0.7649,-0.764,-0.7644,-0.7603,-0.7571,-0.7559,-0.7697,-0.7696,-0.7696,-0.7696,0,0,-0.8677,-0.8532,-0.8516,-0.8462,-0.8352,-0.8288,-0.8207,-0.8108,-0.806,-0.7978,-0.7904,-0.7782,-0.7771,-0.771,-0.7665,-0.7612,-0.755,-0.7607,-0.7603,-0.7595,-0.7434,-0.7439,-0.7427,-0.7531,-0.7529,-0.7527,-0.744,0,-0.8615,-0.8473,-0.8415,-0.8297,-0.8221,-0.8172,-0.81,-0.8022,-0.7966,-0.7889,-0.7826,-0.7739,-0.7734,-0.7695,-0.7641,-0.757,-0.7516,-0.7576,-0.7456,-0.7453,-0.7479,-0.7411,-0.7418,-0.7341,-0.7428,-0.7426,-0.7425,0,-0.8525,-0.8444,-0.8319,-0.8214,-0.8179,-0.8117,-0.8018,-0.7947,-0.7855,-0.7817,-0.7747,-0.7705,-0.7612,-0.7625,-0.7493,-0.7534,-0.7481,-0.7439,-0.7434,-0.7418,-0.7434,-0.7389,-0.7315,-0.7302,-0.7406,-0.7407,-0.7409,0,-0.8517,-0.8376,-0.8282,-0.8238,-0.8114,-0.807,-0.8016,-0.7925,-0.7867,-0.778,-0.774,-0.7642,-0.7587,-0.751,-0.744,-0.7457,-0.7312,-0.7321,-0.7273,-0.7275,-0.7243,-0.7245,-0.7156,-0.7216,-0.7216,-0.7216,-0.7217,0,-0.8452,-0.8376,-0.8276,-0.8218,-0.813,-0.8062,-0.7975,-0.7916,-0.7835,-0.776,-0.7712,-0.7642,-0.7556,-0.7473,-0.7417,-0.7312,-0.7289,-0.7252,-0.7237,-0.7254,-0.7258,-0.7216,-0.7218,-0.7213,-0.7214,-0.7214,-0.7215,0,-0.8428,-0.8359,-0.8252,-0.8143,-0.8113,-0.8052,-0.7956,-0.7894,-0.7836,-0.7741,-0.7715,-0.7621,-0.752,-0.7444,-0.7313,-0.7275,-0.7162,-0.7149,-0.7195,-0.7186,-0.7142,-0.7145,-0.7019,-0.6996,-0.7076,-0.7075,-0.7075,0,-0.839,-0.833,-0.8214,-0.8162,-0.8108,-0.8025,-0.7966,-0.7895,-0.7834,-0.7721,-0.7672,-0.7569,-0.7482,-0.7323,-0.724,-0.7138,-0.7118,-0.7081,-0.7103,-0.712,-0.7112,-0.7115,-0.7105,-0.7077,-0.7077,-0.7077,-0.7076,0,-0.8327,-0.8295,-0.8214,-0.8118,-0.8049,-0.797,-0.7889,-0.7848,-0.7761,-0.7694,-0.7592,-0.7525,-0.7391,-0.7286,-0.7175,-0.7113,-0.7077,-0.707,-0.7053,-0.7068,-0.7095,-0.7074,-0.7182,-0.7073,-0.7073,-0.7074,-0.7074,-0.7074,-0.8292,-0.8235,-0.8143,-0.8052,-0.7984,-0.7908,-0.7844,-0.7777,-0.7692,-0.7579,-0.7541,-0.7434,-0.7336,-0.7184,-0.712,-0.7032,-0.703,-0.7007,-0.7,-0.6994,-0.6993,-0.7112,-0.7012,-0.7012,-0.7012,-0.7012,-0.7012,0,-0.8223,-0.8161,-0.8078,-0.7967,-0.7893,-0.787,-0.7778,-0.7717,-0.7624,-0.7538,-0.7454,-0.7333,-0.723,-0.7138,-0.703,-0.6976,-0.6956,-0.695,-0.6951,-0.6936,-0.7003,-0.7027,-0.6967,-0.6967,-0.6967,-0.6967,-0.6967,-0.6967,-0.8179,-0.8079,-0.8035,-0.7899,-0.7836,-0.7733,-0.7682,-0.7609,-0.754,-0.7408,-0.7323,-0.7265,-0.7174,-0.7058,-0.6961,-0.6936,-0.6896,-0.6892,-0.6862,-0.6926,-0.6932,-0.6937,-0.6958,-0.6885,-0.6885,-0.6801,-0.6801,-0.68]}]]